owner,sensor,date,latitude,longitude,air_pressure(mBar),qcFlag 
NDBC,ioos:station:NOAA.NDBC:SRST2:1,2019-09-02T11:00:00Z,29.6830,-94.0330,1015.2,11111222 
NDBC,ioos:station:NOAA.NDBC:SRST2:1,2019-09-02T12:00:00Z,29.6830,-94.0330,1015.6,11111222 
NDBC,ioos:station:NOAA.NDBC:SRST2:1,2019-09-02T13:00:00Z,29.6830,-94.0330,1015.9,11111222 
NDBC,ioos:station:NOAA.NDBC:SRST2:1,2019-09-02T14:00:00Z,29.6830,-94.0330,1016.0,11111222 
NDBC,ioos:station:NOAA.NDBC:SRST2:1,2019-09-03T05:00:00Z,29.6830,-94.0330,1013.6,11111222 
NDBC,ioos:station:NOAA.NDBC:SRST2:1,2019-09-03T08:00:00Z,29.6830,-94.0330,1012.6,11111222 
NDBC,ioos:station:NOAA.NDBC:SRST2:1,2019-09-03T10:00:00Z,29.6830,-94.0330,1012.6,11111222 
NDBC,ioos:station:NOAA.NDBC:SRST2:1,2019-09-03T11:00:00Z,29.6830,-94.0330,1013.2,11111222 
NDBC,ioos:station:NOAA.NDBC:SRST2:1,2019-09-04T03:00:00Z,29.6830,-94.0330,1013.3,11111222 
NDBC,ioos:station:NOAA.NDBC:SRST2:1,2019-09-04T04:00:00Z,29.6830,-94.0330,1013.5,11111222 
NDBC,ioos:station:NOAA.NDBC:SRST2:1,2019-09-04T06:00:00Z,29.6830,-94.0330,1013.8,11111222 
NDBC,ioos:station:NOAA.NDBC:SRST2:1,2019-09-04T08:00:00Z,29.6830,-94.0330,1013.5,11111222 
NDBC,ioos:station:NOAA.NDBC:SRST2:1,2019-09-04T09:00:00Z,29.6830,-94.0330,1013.6,11111222 
NDBC,ioos:station:NOAA.NDBC:SRST2:1,2019-09-04T12:00:00Z,29.6830,-94.0330,1014.9,11111222 
NDBC,ioos:station:NOAA.NDBC:SRST2:1,2019-09-04T13:00:00Z,29.6830,-94.0330,1015.7,11111222 
NDBC,ioos:station:NOAA.NDBC:SRST2:1,2019-09-05T05:00:00Z,29.6830,-94.0330,1016.4,11111222 
NDBC,ioos:station:NOAA.NDBC:SRST2:1,2019-09-05T06:00:00Z,29.6830,-94.0330,1016.3,11111222 
NDBC,ioos:station:NOAA.NDBC:SRST2:1,2019-09-05T07:00:00Z,29.6830,-94.0330,1016.4,11111222 
NDBC,ioos:station:NOAA.NDBC:SRST2:1,2019-09-05T08:00:00Z,29.6830,-94.0330,1016.3,11111222 
NDBC,ioos:station:NOAA.NDBC:SRST2:1,2019-09-05T12:00:00Z,29.6830,-94.0330,1018.0,11111222 
NDBC,ioos:station:NOAA.NDBC:SRST2:1,2019-09-05T13:00:00Z,29.6830,-94.0330,1018.7,11111222 
NDBC,ioos:station:NOAA.NDBC:SRST2:1,2019-09-05T14:00:00Z,29.6830,-94.0330,1019.1,11111222 
NDBC,ioos:station:NOAA.NDBC:SRST2:1,2019-09-06T04:00:00Z,29.6830,-94.0330,1016.6,11111222 
NDBC,ioos:station:NOAA.NDBC:SRST2:1,2019-09-06T05:00:00Z,29.6830,-94.0330,1016.5,11111222 
NDBC,ioos:station:NOAA.NDBC:SRST2:1,2019-09-06T07:00:00Z,29.6830,-94.0330,1016.5,11111222 
NDBC,ioos:station:NOAA.NDBC:SRST2:1,2019-09-06T10:00:00Z,29.6830,-94.0330,1016.7,11111222 
NDBC,ioos:station:NOAA.NDBC:SRST2:1,2019-09-06T11:00:00Z,29.6830,-94.0330,1017.2,11111222 
NDBC,ioos:station:NOAA.NDBC:SRST2:1,2019-09-06T13:00:00Z,29.6830,-94.0330,1018.0,11111222 
NDBC,ioos:station:NOAA.NDBC:SRST2:1,2019-09-06T14:00:00Z,29.6830,-94.0330,1018.3,11111222 
NDBC,ioos:station:NOAA.NDBC:SRST2:1,2019-09-07T04:00:00Z,29.6830,-94.0330,1016.3,11111222 
NDBC,ioos:station:NOAA.NDBC:SRST2:1,2019-09-07T05:00:00Z,29.6830,-94.0330,1016.4,11111222 
NDBC,ioos:station:NOAA.NDBC:SRST2:1,2019-09-07T07:00:00Z,29.6830,-94.0330,1016.3,11111222 
NDBC,ioos:station:NOAA.NDBC:SRST2:1,2019-09-07T08:00:00Z,29.6830,-94.0330,1016.2,11111222 
NDBC,ioos:station:NOAA.NDBC:SRST2:1,2019-09-07T09:00:00Z,29.6830,-94.0330,1016.1,11111222 
NDBC,ioos:station:NOAA.NDBC:SRST2:1,2019-09-07T11:00:00Z,29.6830,-94.0330,1016.4,11111222 
NDBC,ioos:station:NOAA.NDBC:SRST2:1,2019-09-07T11:45:00Z,29.6830,-94.0330,1016.7,11111222 
NDBC,ioos:station:NOAA.NDBC:SRST2:1,2019-09-07T13:00:00Z,29.6830,-94.0330,1017.4,11111222 
NDBC,ioos:station:NOAA.NDBC:SRST2:1,2019-09-07T14:00:00Z,29.6830,-94.0330,1017.8,11111222 
NDBC,ioos:station:NOAA.NDBC:SRST2:1,2019-09-08T03:00:00Z,29.6830,-94.0330,1015.3,11111222 
NDBC,ioos:station:NOAA.NDBC:SRST2:1,2019-09-08T04:00:00Z,29.6830,-94.0330,1015.6,11111222 
NDBC,ioos:station:NOAA.NDBC:SRST2:1,2019-09-08T05:00:00Z,29.6830,-94.0330,1015.5,11111222 
NDBC,ioos:station:NOAA.NDBC:SRST2:1,2019-09-08T06:00:00Z,29.6830,-94.0330,1015.6,11111222 
NDBC,ioos:station:NOAA.NDBC:SRST2:1,2019-09-08T08:00:00Z,29.6830,-94.0330,1015.3,11111222 
NDBC,ioos:station:NOAA.NDBC:SRST2:1,2019-09-08T09:00:00Z,29.6830,-94.0330,1015.3,11111222 
NDBC,ioos:station:NOAA.NDBC:SRST2:1,2019-09-08T14:00:00Z,29.6830,-94.0330,1016.6,11111222 
NDBC,ioos:station:NOAA.NDBC:SRST2:1,2019-09-09T03:00:00Z,29.6830,-94.0330,1015.7,11111222 
NDBC,ioos:station:NOAA.NDBC:SRST2:1,2019-09-09T04:00:00Z,29.6830,-94.0330,1015.7,11111222 
NDBC,ioos:station:NOAA.NDBC:SRST2:1,2019-09-09T06:00:00Z,29.6830,-94.0330,1016.1,11111222 
NDBC,ioos:station:NOAA.NDBC:SRST2:1,2019-09-09T08:00:00Z,29.6830,-94.0330,1015.9,11111222 
NDBC,ioos:station:NOAA.NDBC:SRST2:1,2019-09-09T09:00:00Z,29.6830,-94.0330,1015.6,11111222 
NDBC,ioos:station:NOAA.NDBC:SRST2:1,2019-09-09T11:00:00Z,29.6830,-94.0330,1016.3,11111222 
NDBC,ioos:station:NOAA.NDBC:SRST2:1,2019-09-09T12:00:00Z,29.6830,-94.0330,1016.7,11111222 
NDBC,ioos:station:NOAA.NDBC:SRST2:1,2019-09-09T14:00:00Z,29.6830,-94.0330,1017.8,11111222 
NDBC,ioos:station:NOAA.NDBC:SRST2:1,2019-09-09T23:00:00Z,29.6830,-94.0330,1015.2,11111222 
NDBC,ioos:station:NOAA.NDBC:SRST2:1,2019-09-10T02:00:00Z,29.6830,-94.0330,1016.7,11111222 
NDBC,ioos:station:NOAA.NDBC:SRST2:1,2019-09-10T03:00:00Z,29.6830,-94.0330,1017.2,11111222 
NDBC,ioos:station:NOAA.NDBC:SRST2:1,2019-09-10T04:00:00Z,29.6830,-94.0330,1017.2,11111222 
NDBC,ioos:station:NOAA.NDBC:SRST2:1,2019-09-10T05:00:00Z,29.6830,-94.0330,1017.4,11111222 
NDBC,ioos:station:NOAA.NDBC:SRST2:1,2019-09-10T06:00:00Z,29.6830,-94.0330,1017.1,11111222 
NDBC,ioos:station:NOAA.NDBC:SRST2:1,2019-09-10T07:00:00Z,29.6830,-94.0330,1017.2,11111222 
NDBC,ioos:station:NOAA.NDBC:SRST2:1,2019-09-10T08:00:00Z,29.6830,-94.0330,1017.2,11111222 
NDBC,ioos:station:NOAA.NDBC:SRST2:1,2019-09-10T09:00:00Z,29.6830,-94.0330,1017.0,11111222 
NDBC,ioos:station:NOAA.NDBC:SRST2:1,2019-09-10T10:00:00Z,29.6830,-94.0330,1016.9,11111222 
NDBC,ioos:station:NOAA.NDBC:SRST2:1,2019-09-10T12:00:00Z,29.6830,-94.0330,1017.7,11111222 
NDBC,ioos:station:NOAA.NDBC:SRST2:1,2019-09-10T13:00:00Z,29.6830,-94.0330,1018.2,11111222 
NDBC,ioos:station:NOAA.NDBC:SRST2:1,2019-09-10T14:00:00Z,29.6830,-94.0330,1018.5,11111222 
NDBC,ioos:station:NOAA.NDBC:SRST2:1,2019-09-10T23:00:00Z,29.6830,-94.0330,1018.0,11111222 
NDBC,ioos:station:NOAA.NDBC:SRST2:1,2019-09-11T02:00:00Z,29.6830,-94.0330,1018.7,11111222 
NDBC,ioos:station:NOAA.NDBC:SRST2:1,2019-09-11T03:00:00Z,29.6830,-94.0330,1019.2,11111222 
NDBC,ioos:station:NOAA.NDBC:SRST2:1,2019-09-11T04:00:00Z,29.6830,-94.0330,1019.3,11111222 
NDBC,ioos:station:NOAA.NDBC:SRST2:1,2019-09-11T07:00:00Z,29.6830,-94.0330,1019.0,11111222 
NDBC,ioos:station:NOAA.NDBC:SRST2:1,2019-09-11T09:00:00Z,29.6830,-94.0330,1018.2,11111222 
NDBC,ioos:station:NOAA.NDBC:SRST2:1,2019-09-11T10:00:00Z,29.6830,-94.0330,1018.4,11111222 
NDBC,ioos:station:NOAA.NDBC:SRST2:1,2019-09-11T12:00:00Z,29.6830,-94.0330,1019.4,11111222 
NDBC,ioos:station:NOAA.NDBC:SRST2:1,2019-09-11T13:00:00Z,29.6830,-94.0330,1020.1,11111222 
NDBC,ioos:station:NOAA.NDBC:SRST2:1,2019-09-11T15:00:00Z,29.6830,-94.0330,1020.8,11111222 
NDBC,ioos:station:NOAA.NDBC:SRST2:1,2019-09-12T02:00:00Z,29.6830,-94.0330,1018.5,11111222 
NDBC,ioos:station:NOAA.NDBC:SRST2:1,2019-09-12T03:00:00Z,29.6830,-94.0330,1018.7,11111222 
NDBC,ioos:station:NOAA.NDBC:SRST2:1,2019-09-12T04:00:00Z,29.6830,-94.0330,1018.5,11111222 
NDBC,ioos:station:NOAA.NDBC:SRST2:1,2019-09-12T06:00:00Z,29.6830,-94.0330,1017.7,11111222 
NDBC,ioos:station:NOAA.NDBC:SRST2:1,2019-09-12T08:00:00Z,29.6830,-94.0330,1016.7,11111222 
NDBC,ioos:station:NOAA.NDBC:SRST2:1,2019-09-12T10:00:00Z,29.6830,-94.0330,1016.6,11111222 
NDBC,ioos:station:NOAA.NDBC:SRST2:1,2019-09-12T12:00:00Z,29.6830,-94.0330,1017.5,11111222 
NDBC,ioos:station:NOAA.NDBC:SRST2:1,2019-09-12T13:00:00Z,29.6830,-94.0330,1018.1,11111222 
NDBC,ioos:station:NOAA.NDBC:SRST2:1,2019-09-12T14:00:00Z,29.6830,-94.0330,1018.5,11111222 
NDBC,ioos:station:NOAA.NDBC:SRST2:1,2019-09-13T13:00:00Z,29.6830,-94.0330,1019.0,11111222 
NDBC,ioos:station:NOAA.NDBC:SRST2:1,2019-09-14T02:00:00Z,29.6830,-94.0330,1017.5,11111222 
NDBC,ioos:station:NOAA.NDBC:SRST2:1,2019-09-14T03:00:00Z,29.6830,-94.0330,1018.0,11111222 
NDBC,ioos:station:NOAA.NDBC:SRST2:1,2019-09-14T04:00:00Z,29.6830,-94.0330,1018.5,11111222 
NDBC,ioos:station:NOAA.NDBC:SRST2:1,2019-09-14T05:00:00Z,29.6830,-94.0330,1018.3,11111222 
NDBC,ioos:station:NOAA.NDBC:SRST2:1,2019-09-14T06:00:00Z,29.6830,-94.0330,1018.1,11111222 
NDBC,ioos:station:NOAA.NDBC:SRST2:1,2019-09-14T07:00:00Z,29.6830,-94.0330,1017.8,11111222 
NDBC,ioos:station:NOAA.NDBC:SRST2:1,2019-09-14T08:00:00Z,29.6830,-94.0330,1017.5,11111222 
NDBC,ioos:station:NOAA.NDBC:SRST2:1,2019-09-14T09:00:00Z,29.6830,-94.0330,1017.1,11111222 
NDBC,ioos:station:NOAA.NDBC:SRST2:1,2019-09-14T10:00:00Z,29.6830,-94.0330,1017.5,11111222 
NDBC,ioos:station:NOAA.NDBC:SRST2:1,2019-09-14T11:00:00Z,29.6830,-94.0330,1017.7,11111222 
NDBC,ioos:station:NOAA.NDBC:SRST2:1,2019-09-14T12:00:00Z,29.6830,-94.0330,1018.0,11111222 
NDBC,ioos:station:NOAA.NDBC:SRST2:1,2019-09-14T13:00:00Z,29.6830,-94.0330,1018.4,11111222 
NDBC,ioos:station:NOAA.NDBC:SRST2:1,2019-09-14T14:00:00Z,29.6830,-94.0330,1018.7,11111222 
NDBC,ioos:station:NOAA.NDBC:SRST2:1,2019-09-15T00:00:00Z,29.6830,-94.0330,1016.3,11111222 
NDBC,ioos:station:NOAA.NDBC:SRST2:1,2019-09-15T04:00:00Z,29.6830,-94.0330,1017.6,11111222 
NDBC,ioos:station:NOAA.NDBC:SRST2:1,2019-09-15T05:00:00Z,29.6830,-94.0330,1017.7,11111222 
NDBC,ioos:station:NOAA.NDBC:SRST2:1,2019-09-15T07:00:00Z,29.6830,-94.0330,1017.3,11111222 
NDBC,ioos:station:NOAA.NDBC:SRST2:1,2019-09-15T10:00:00Z,29.6830,-94.0330,1016.6,11111222 
NDBC,ioos:station:NOAA.NDBC:SRST2:1,2019-09-15T11:00:00Z,29.6830,-94.0330,1016.7,11111222 
NDBC,ioos:station:NOAA.NDBC:SRST2:1,2019-09-15T12:00:00Z,29.6830,-94.0330,1016.7,11111222 
NDBC,ioos:station:NOAA.NDBC:SRST2:1,2019-09-15T13:00:00Z,29.6830,-94.0330,1016.7,11111222 
NDBC,ioos:station:NOAA.NDBC:SRST2:1,2019-09-15T15:00:00Z,29.6830,-94.0330,1017.1,11111222 
NDBC,ioos:station:NOAA.NDBC:SRST2:1,2019-09-16T01:00:00Z,29.6830,-94.0330,1014.5,11111222 
NDBC,ioos:station:NOAA.NDBC:SRST2:1,2019-09-16T02:00:00Z,29.6830,-94.0330,1015.3,11111222 
NDBC,ioos:station:NOAA.NDBC:SRST2:1,2019-09-16T03:00:00Z,29.6830,-94.0330,1015.5,11111222 
NDBC,ioos:station:NOAA.NDBC:SRST2:1,2019-09-16T04:00:00Z,29.6830,-94.0330,1015.5,11111222 
NDBC,ioos:station:NOAA.NDBC:SRST2:1,2019-09-16T05:00:00Z,29.6830,-94.0330,1015.5,11111222 
NDBC,ioos:station:NOAA.NDBC:SRST2:1,2019-09-16T08:00:00Z,29.6830,-94.0330,1015.0,11111222 
NDBC,ioos:station:NOAA.NDBC:SRST2:1,2019-09-16T09:00:00Z,29.6830,-94.0330,1014.9,11111222 
NDBC,ioos:station:NOAA.NDBC:SRST2:1,2019-09-16T13:00:00Z,29.6830,-94.0330,1015.2,11111222 
NDBC,ioos:station:NOAA.NDBC:SRST2:1,2019-09-16T14:00:00Z,29.6830,-94.0330,1015.5,11111222 
NDBC,ioos:station:NOAA.NDBC:SRST2:1,2019-09-16T17:00:00Z,29.6830,-94.0330,1015.8,11111222 
NDBC,ioos:station:NOAA.NDBC:SRST2:1,2019-09-16T18:00:00Z,29.6830,-94.0330,1015.5,11111222 
NDBC,ioos:station:NOAA.NDBC:SRST2:1,2019-09-16T19:00:00Z,29.6830,-94.0330,1014.9,11111222 
NDBC,ioos:station:NOAA.NDBC:SRST2:1,2019-09-16T20:00:00Z,29.6830,-94.0330,1014.0,11111222 
NDBC,ioos:station:NOAA.NDBC:SRST2:1,2019-09-16T21:00:00Z,29.6830,-94.0330,1013.8,11111222 
NDBC,ioos:station:NOAA.NDBC:SRST2:1,2019-09-16T22:00:00Z,29.6830,-94.0330,1013.2,11111222 
NDBC,ioos:station:NOAA.NDBC:SRST2:1,2019-09-16T23:00:00Z,29.6830,-94.0330,1013.3,11111222 
NDBC,ioos:station:NOAA.NDBC:SRST2:1,2019-09-17T00:00:00Z,29.6830,-94.0330,1013.3,11111222 
NDBC,ioos:station:NOAA.NDBC:SRST2:1,2019-09-17T02:00:00Z,29.6830,-94.0330,1013.5,11111222 
NDBC,ioos:station:NOAA.NDBC:SRST2:1,2019-09-17T03:00:00Z,29.6830,-94.0330,1013.9,11111222 
NDBC,ioos:station:NOAA.NDBC:SRST2:1,2019-09-17T05:00:00Z,29.6830,-94.0330,1013.3,11111222 
NDBC,ioos:station:NOAA.NDBC:SRST2:1,2019-09-17T06:00:00Z,29.6830,-94.0330,1012.9,11111222 
NDBC,ioos:station:NOAA.NDBC:SRST2:1,2019-09-17T08:00:00Z,29.6830,-94.0330,1012.5,11111222 
NDBC,ioos:station:NOAA.NDBC:SRST2:1,2019-09-17T09:00:00Z,29.6830,-94.0330,1012.2,11111222 
NDBC,ioos:station:NOAA.NDBC:SRST2:1,2019-09-17T10:00:00Z,29.6830,-94.0330,1012.6,11111222 
NDBC,ioos:station:NOAA.NDBC:SRST2:1,2019-09-17T11:00:00Z,29.6830,-94.0330,1012.8,11111222 
NDBC,ioos:station:NOAA.NDBC:SRST2:1,2019-09-17T12:00:00Z,29.6830,-94.0330,1013.3,11111222 
NDBC,ioos:station:NOAA.NDBC:SRST2:1,2019-09-17T13:00:00Z,29.6830,-94.0330,1013.9,11111222 
NDBC,ioos:station:NOAA.NDBC:SRST2:1,2019-09-17T14:00:00Z,29.6830,-94.0330,1014.2,11111222 
NDBC,ioos:station:NOAA.NDBC:SRST2:1,2019-09-17T15:00:00Z,29.6830,-94.0330,1014.5,11111222 
NDBC,ioos:station:NOAA.NDBC:SRST2:1,2019-09-17T17:00:00Z,29.6830,-94.0330,1014.6,11111222 
NDBC,ioos:station:NOAA.NDBC:SRST2:1,2019-09-17T19:00:00Z,29.6830,-94.0330,1013.9,11111222 
NDBC,ioos:station:NOAA.NDBC:SRST2:1,2019-09-17T22:00:00Z,29.6830,-94.0330,1011.9,11111222 
NDBC,ioos:station:NOAA.NDBC:SRST2:1,2019-09-17T23:00:00Z,29.6830,-94.0330,1012.0,11111222 
NDBC,ioos:station:NOAA.NDBC:SRST2:1,2019-09-18T01:00:00Z,29.6830,-94.0330,1012.1,11111222 
NDBC,ioos:station:NOAA.NDBC:SRST2:1,2019-09-18T02:00:00Z,29.6830,-94.0330,1012.4,11111222 
NDBC,ioos:station:NOAA.NDBC:SRST2:1,2019-09-18T03:00:00Z,29.6830,-94.0330,1012.5,11111222 
NDBC,ioos:station:NOAA.NDBC:SRST2:1,2019-09-18T06:00:00Z,29.6830,-94.0330,1011.9,11111222 
NDBC,ioos:station:NOAA.NDBC:SRST2:1,2019-09-18T07:00:00Z,29.6830,-94.0330,1011.8,11111222 
NDBC,ioos:station:NOAA.NDBC:SRST2:1,2019-09-18T08:00:00Z,29.6830,-94.0330,1011.4,11111222 
NDBC,ioos:station:NOAA.NDBC:SRST2:1,2019-09-18T09:00:00Z,29.6830,-94.0330,1011.0,11111222 
NDBC,ioos:station:NOAA.NDBC:SRST2:1,2019-09-18T10:00:00Z,29.6830,-94.0330,1010.6,11111222 
NDBC,ioos:station:NOAA.NDBC:SRST2:1,2019-09-18T11:00:00Z,29.6830,-94.0330,1011.1,11111222 
NDBC,ioos:station:NOAA.NDBC:SRST2:1,2019-09-18T12:00:00Z,29.6830,-94.0330,1012.8,11111222 
NDBC,ioos:station:NOAA.NDBC:SRST2:1,2019-09-18T13:00:00Z,29.6830,-94.0330,1012.9,11111222 
NDBC,ioos:station:NOAA.NDBC:SRST2:1,2019-09-18T14:00:00Z,29.6830,-94.0330,1013.7,11111222 
NDBC,ioos:station:NOAA.NDBC:SRST2:1,2019-09-18T15:00:00Z,29.6830,-94.0330,1013.8,11111222 
NDBC,ioos:station:NOAA.NDBC:SRST2:1,2019-09-18T16:00:00Z,29.6830,-94.0330,1013.8,11111222 
NDBC,ioos:station:NOAA.NDBC:SRST2:1,2019-09-18T17:00:00Z,29.6830,-94.0330,1014.1,11111222 
NDBC,ioos:station:NOAA.NDBC:SRST2:1,2019-09-18T18:00:00Z,29.6830,-94.0330,1014.5,11111222 
NDBC,ioos:station:NOAA.NDBC:SRST2:1,2019-09-18T19:00:00Z,29.6830,-94.0330,1013.9,11111222 
NDBC,ioos:station:NOAA.NDBC:SRST2:1,2019-09-18T20:00:00Z,29.6830,-94.0330,1012.8,11111222 
NDBC,ioos:station:NOAA.NDBC:SRST2:1,2019-09-18T21:00:00Z,29.6830,-94.0330,1012.4,11111222 
NDBC,ioos:station:NOAA.NDBC:SRST2:1,2019-09-18T22:00:00Z,29.6830,-94.0330,1012.3,11111222 
NDBC,ioos:station:NOAA.NDBC:SRST2:1,2019-09-18T23:00:00Z,29.6830,-94.0330,1011.9,11111222 
NDBC,ioos:station:NOAA.NDBC:SRST2:1,2019-09-19T00:00:00Z,29.6830,-94.0330,1011.5,11111222 
NDBC,ioos:station:NOAA.NDBC:SRST2:1,2019-09-19T01:00:00Z,29.6830,-94.0330,1012.1,11111222 
NDBC,ioos:station:NOAA.NDBC:SRST2:1,2019-09-19T02:00:00Z,29.6830,-94.0330,1011.5,11111222 
NDBC,ioos:station:NOAA.NDBC:SRST2:1,2019-09-19T03:00:00Z,29.6830,-94.0330,1011.9,11111222 
NDBC,ioos:station:NOAA.NDBC:SRST2:1,2019-09-19T04:00:00Z,29.6830,-94.0330,1011.8,11111222 
NDBC,ioos:station:NOAA.NDBC:SRST2:1,2019-09-19T06:00:00Z,29.6830,-94.0330,1011.3,11111222 
NDBC,ioos:station:NOAA.NDBC:SRST2:1,2019-09-19T08:00:00Z,29.6830,-94.0330,1010.6,11111222 
NDBC,ioos:station:NOAA.NDBC:SRST2:1,2019-09-19T09:00:00Z,29.6830,-94.0330,1010.4,11111222 
NDBC,ioos:station:NOAA.NDBC:SRST2:1,2019-09-19T10:00:00Z,29.6830,-94.0330,1009.6,11111222 
NDBC,ioos:station:NOAA.NDBC:SRST2:1,2019-09-19T11:00:00Z,29.6830,-94.0330,1010.8,11111222 
NDBC,ioos:station:NOAA.NDBC:SRST2:1,2019-09-19T12:00:00Z,29.6830,-94.0330,1011.9,11111222 
NDBC,ioos:station:NOAA.NDBC:SRST2:1,2019-09-19T13:00:00Z,29.6830,-94.0330,1011.8,11111222 
NDBC,ioos:station:NOAA.NDBC:SRST2:1,2019-09-19T14:00:00Z,29.6830,-94.0330,1012.1,11111222 
NDBC,ioos:station:NOAA.NDBC:SRST2:1,2019-09-19T16:00:00Z,29.6830,-94.0330,1014.1,11111222 
NDBC,ioos:station:NOAA.NDBC:SRST2:1,2019-09-19T17:00:00Z,29.6830,-94.0330,1014.3,11111222 
NDBC,ioos:station:NOAA.NDBC:SRST2:1,2019-09-19T18:00:00Z,29.6830,-94.0330,1014.4,11111222 
NDBC,ioos:station:NOAA.NDBC:SRST2:1,2019-09-19T20:00:00Z,29.6830,-94.0330,1013.9,11111222 
NDBC,ioos:station:NOAA.NDBC:SRST2:1,2019-09-19T21:00:00Z,29.6830,-94.0330,1013.4,11111222 
NDBC,ioos:station:NOAA.NDBC:SRST2:1,2019-09-19T22:00:00Z,29.6830,-94.0330,1013.4,11111222 
NDBC,ioos:station:NOAA.NDBC:SRST2:1,2019-09-19T23:00:00Z,29.6830,-94.0330,1013.1,11111222 
NDBC,ioos:station:NOAA.NDBC:SRST2:1,2019-09-20T00:00:00Z,29.6830,-94.0330,1013.6,11111222 
NDBC,ioos:station:NOAA.NDBC:SRST2:1,2019-09-20T01:00:00Z,29.6830,-94.0330,1013.5,11111222 
NDBC,ioos:station:NOAA.NDBC:SRST2:1,2019-09-20T02:00:00Z,29.6830,-94.0330,1013.5,11111222 
NDBC,ioos:station:NOAA.NDBC:SRST2:1,2019-09-20T03:00:00Z,29.6830,-94.0330,1013.9,11111222 
NDBC,ioos:station:NOAA.NDBC:SRST2:1,2019-09-20T04:00:00Z,29.6830,-94.0330,1014.3,11111222 
NDBC,ioos:station:NOAA.NDBC:SRST2:1,2019-09-20T05:00:00Z,29.6830,-94.0330,1014.4,11111222 
NDBC,ioos:station:NOAA.NDBC:SRST2:1,2019-09-20T06:00:00Z,29.6830,-94.0330,1014.4,11111222 
NDBC,ioos:station:NOAA.NDBC:SRST2:1,2019-09-20T07:00:00Z,29.6830,-94.0330,1014.2,11111222 
NDBC,ioos:station:NOAA.NDBC:SRST2:1,2019-09-20T08:00:00Z,29.6830,-94.0330,1014.2,11111222 
NDBC,ioos:station:NOAA.NDBC:SRST2:1,2019-09-20T09:00:00Z,29.6830,-94.0330,1014.3,11111222 
NDBC,ioos:station:NOAA.NDBC:SRST2:1,2019-09-20T10:00:00Z,29.6830,-94.0330,1014.5,11111222 
NDBC,ioos:station:NOAA.NDBC:SRST2:1,2019-09-20T11:00:00Z,29.6830,-94.0330,1014.9,11111222 
NDBC,ioos:station:NOAA.NDBC:SRST2:1,2019-09-20T12:00:00Z,29.6830,-94.0330,1015.1,11111222 
NDBC,ioos:station:NOAA.NDBC:SRST2:1,2019-09-20T13:00:00Z,29.6830,-94.0330,1016.5,11111222 
NDBC,ioos:station:NOAA.NDBC:SRST2:1,2019-09-20T14:00:00Z,29.6830,-94.0330,1016.5,11111222 
NDBC,ioos:station:NOAA.NDBC:SRST2:1,2019-09-20T15:00:00Z,29.6830,-94.0330,1017.6,11111222 
NDBC,ioos:station:NOAA.NDBC:SRST2:1,2019-09-20T16:00:00Z,29.6830,-94.0330,1017.9,11111222 
NDBC,ioos:station:NOAA.NDBC:SRST2:1,2019-09-20T17:00:00Z,29.6830,-94.0330,1017.5,11111222 
NDBC,ioos:station:NOAA.NDBC:SRST2:1,2019-09-20T22:00:00Z,29.6830,-94.0330,1016.3,11111222 
NDBC,ioos:station:NOAA.NDBC:SRST2:1,2019-09-20T23:00:00Z,29.6830,-94.0330,1016.5,11111222 
NDBC,ioos:station:NOAA.NDBC:SRST2:1,2019-09-21T00:00:00Z,29.6830,-94.0330,1016.9,11111222 
NDBC,ioos:station:NOAA.NDBC:SRST2:1,2019-09-21T02:00:00Z,29.6830,-94.0330,1017.5,11111222 
NDBC,ioos:station:NOAA.NDBC:SRST2:1,2019-09-21T03:00:00Z,29.6830,-94.0330,1017.8,11111222 
NDBC,ioos:station:NOAA.NDBC:SRST2:1,2019-09-21T04:00:00Z,29.6830,-94.0330,1017.9,11111222 
NDBC,ioos:station:NOAA.NDBC:SRST2:1,2019-09-21T05:00:00Z,29.6830,-94.0330,1018.0,11111222 
NDBC,ioos:station:NOAA.NDBC:SRST2:1,2019-09-21T06:00:00Z,29.6830,-94.0330,1018.0,11111222 
NDBC,ioos:station:NOAA.NDBC:SRST2:1,2019-09-21T07:00:00Z,29.6830,-94.0330,1017.6,11111222 
NDBC,ioos:station:NOAA.NDBC:SRST2:1,2019-09-21T08:00:00Z,29.6830,-94.0330,1017.7,11111222 
NDBC,ioos:station:NOAA.NDBC:SRST2:1,2019-09-21T09:00:00Z,29.6830,-94.0330,1017.3,11111222 
NDBC,ioos:station:NOAA.NDBC:SRST2:1,2019-09-21T10:00:00Z,29.6830,-94.0330,1017.4,11111222 
NDBC,ioos:station:NOAA.NDBC:SRST2:1,2019-09-21T11:00:00Z,29.6830,-94.0330,1017.9,11111222 
NDBC,ioos:station:NOAA.NDBC:SRST2:1,2019-09-21T12:00:00Z,29.6830,-94.0330,1018.0,11111222 
NDBC,ioos:station:NOAA.NDBC:SRST2:1,2019-09-21T13:00:00Z,29.6830,-94.0330,1018.5,11111222 
NDBC,ioos:station:NOAA.NDBC:SRST2:1,2019-09-21T14:00:00Z,29.6830,-94.0330,1018.9,11111222 
NDBC,ioos:station:NOAA.NDBC:SRST2:1,2019-09-22T01:00:00Z,29.6830,-94.0330,1016.7,11111222 
NDBC,ioos:station:NOAA.NDBC:SRST2:1,2019-09-22T05:00:00Z,29.6830,-94.0330,1017.4,11111222 
NDBC,ioos:station:NOAA.NDBC:SRST2:1,2019-09-22T06:00:00Z,29.6830,-94.0330,1016.9,11111222 
NDBC,ioos:station:NOAA.NDBC:SRST2:1,2019-09-22T07:00:00Z,29.6830,-94.0330,1016.8,11111222 
NDBC,ioos:station:NOAA.NDBC:SRST2:1,2019-09-22T09:00:00Z,29.6830,-94.0330,1016.8,11111222 
NDBC,ioos:station:NOAA.NDBC:SRST2:1,2019-09-22T10:00:00Z,29.6830,-94.0330,1016.8,11111222 
NDBC,ioos:station:NOAA.NDBC:SRST2:1,2019-09-22T11:00:00Z,29.6830,-94.0330,1016.9,11111222 
NDBC,ioos:station:NOAA.NDBC:SRST2:1,2019-09-22T12:00:00Z,29.6830,-94.0330,1017.1,11111222 
NDBC,ioos:station:NOAA.NDBC:SRST2:1,2019-09-22T13:00:00Z,29.6830,-94.0330,1017.6,11111222 
NDBC,ioos:station:NOAA.NDBC:SRST2:1,2019-09-23T03:00:00Z,29.6830,-94.0330,1017.2,11111222 
NDBC,ioos:station:NOAA.NDBC:SRST2:1,2019-09-23T08:00:00Z,29.6830,-94.0330,1016.4,11111222 
NDBC,ioos:station:NOAA.NDBC:SRST2:1,2019-09-23T09:00:00Z,29.6830,-94.0330,1016.0,11111222 
NDBC,ioos:station:NOAA.NDBC:SRST2:1,2019-09-23T10:00:00Z,29.6830,-94.0330,1016.0,11111222 
NDBC,ioos:station:NOAA.NDBC:SRST2:1,2019-09-23T11:00:00Z,29.6830,-94.0330,1016.2,11111222 
NDBC,ioos:station:NOAA.NDBC:SRST2:1,2019-09-23T12:00:00Z,29.6830,-94.0330,1016.9,11111222 
NDBC,ioos:station:NOAA.NDBC:SRST2:1,2019-09-24T06:00:00Z,29.6830,-94.0330,1015.0,11111222 
NDBC,ioos:station:NOAA.NDBC:SRST2:1,2019-09-24T07:00:00Z,29.6830,-94.0330,1014.9,11111222 
NDBC,ioos:station:NOAA.NDBC:SRST2:1,2019-09-24T09:00:00Z,29.6830,-94.0330,1014.7,11111222 
NDBC,ioos:station:NOAA.NDBC:SRST2:1,2019-09-24T10:00:00Z,29.6830,-94.0330,1015.1,11111222 
NDBC,ioos:station:NOAA.NDBC:SRST2:1,2019-09-24T11:00:00Z,29.6830,-94.0330,1015.3,11111222 
NDBC,ioos:station:NOAA.NDBC:SRST2:1,2019-09-24T12:00:00Z,29.6830,-94.0330,1015.5,11111222 
NDBC,ioos:station:NOAA.NDBC:SRST2:1,2019-09-24T13:00:00Z,29.6830,-94.0330,1015.3,11111222 
NDBC,ioos:station:NOAA.NDBC:SRST2:1,2019-09-25T00:00:00Z,29.6830,-94.0330,1012.5,11111222 
NDBC,ioos:station:NOAA.NDBC:SRST2:1,2019-09-25T03:00:00Z,29.6830,-94.0330,1013.2,11111222 
NDBC,ioos:station:NOAA.NDBC:SRST2:1,2019-09-25T04:00:00Z,29.6830,-94.0330,1013.1,11111222 
NDBC,ioos:station:NOAA.NDBC:SRST2:1,2019-09-25T05:00:00Z,29.6830,-94.0330,1012.8,11111222 
NDBC,ioos:station:NOAA.NDBC:SRST2:1,2019-09-25T06:00:00Z,29.6830,-94.0330,1012.6,11111222 
NDBC,ioos:station:NOAA.NDBC:SRST2:1,2019-09-25T07:00:00Z,29.6830,-94.0330,1012.6,11111222 
NDBC,ioos:station:NOAA.NDBC:SRST2:1,2019-09-25T09:00:00Z,29.6830,-94.0330,1012.0,11111222 
NDBC,ioos:station:NOAA.NDBC:SRST2:1,2019-09-25T10:00:00Z,29.6830,-94.0330,1012.2,11111222 
NDBC,ioos:station:NOAA.NDBC:SRST2:1,2019-09-25T13:00:00Z,29.6830,-94.0330,1013.3,11111222 
NDBC,ioos:station:NOAA.NDBC:SRST2:1,2019-09-26T00:00:00Z,29.6830,-94.0330,1011.5,11111222 
NDBC,ioos:station:NOAA.NDBC:SRST2:1,2019-09-26T02:00:00Z,29.6830,-94.0330,1012.8,11111222 
NDBC,ioos:station:NOAA.NDBC:SRST2:1,2019-09-26T05:00:00Z,29.6830,-94.0330,1013.6,11111222 
NDBC,ioos:station:NOAA.NDBC:SRST2:1,2019-09-26T06:00:00Z,29.6830,-94.0330,1013.2,11111222 
NDBC,ioos:station:NOAA.NDBC:SRST2:1,2019-09-26T08:00:00Z,29.6830,-94.0330,1011.9,11111222 
NDBC,ioos:station:NOAA.NDBC:SRST2:1,2019-09-26T09:00:00Z,29.6830,-94.0330,1012.0,11111222 
NDBC,ioos:station:NOAA.NDBC:SRST2:1,2019-09-26T10:00:00Z,29.6830,-94.0330,1012.2,11111222 
NDBC,ioos:station:NOAA.NDBC:SRST2:1,2019-09-26T11:00:00Z,29.6830,-94.0330,1012.8,11111222 
NDBC,ioos:station:NOAA.NDBC:SRST2:1,2019-09-26T12:00:00Z,29.6830,-94.0330,1013.2,11111222 
NDBC,ioos:station:NOAA.NDBC:SRST2:1,2019-09-26T13:00:00Z,29.6830,-94.0330,1014.1,11111222 
NDBC,ioos:station:NOAA.NDBC:SRST2:1,2019-09-26T14:00:00Z,29.6830,-94.0330,1013.9,11111222 
NDBC,ioos:station:NOAA.NDBC:SRST2:1,2019-09-27T01:00:00Z,29.6830,-94.0330,1011.7,11111222 
NDBC,ioos:station:NOAA.NDBC:SRST2:1,2019-09-27T02:00:00Z,29.6830,-94.0330,1012.4,11111222 
NDBC,ioos:station:NOAA.NDBC:SRST2:1,2019-09-27T03:00:00Z,29.6830,-94.0330,1012.7,11111222 
NDBC,ioos:station:NOAA.NDBC:SRST2:1,2019-09-27T04:00:00Z,29.6830,-94.0330,1012.6,11111222 
NDBC,ioos:station:NOAA.NDBC:SRST2:1,2019-09-27T05:00:00Z,29.6830,-94.0330,1012.3,11111222 